Regional Weather Roundup
Issued by NWS

Home | Current Version | Previous Version | Text Only | Print | Product List | Glossary Off
Versions: 1 2 3 4 5 6 7 8 9 10 11 12 13 14 15 16 17 18 19 20 21 22 23 24 25 26 27 28 29 30 31 32 33 34 35 36 37 38 39 40 41 42 43 44 45 46 47 48 49 50

000
ASUS43 KMPX 281210
RWRMN
WEATHER ROUNDUP FOR MINNESOTA
NATIONAL WEATHER SERVICE TWIN CITIES/CHANHASSEN MN
700 AM CDT TUE APR 28 2015


NOTE: "FAIR" INDICATES FEW OR NO CLOUDS BELOW 12,000 FEET WITH NO
SIGNIFICANT WEATHER AND/OR OBSTRUCTIONS TO VISIBILITY. N/A MEANS
CURRENT SKY AND/OR WEATHER CONDITIONS ARE NOT AVAILABLE.

MNZ060>063-068>070-281300-
   Twin Cities Metro

CITY           SKY/WX    TMP DP  RH WIND       PRES   REMARKS
TWIN CITIES    MOCLDY    47  31  53 SW3       30.16R
6HR MIN TEMP:  44; 6HR MAX TEMP:  53;

ST PAUL        CLEAR     42  37  82 CALM      30.16S
CRYSTAL        FAIR      41  33  73 CALM      30.15R
BLAINE         FAIR      41  34  75 CALM      30.15S
LAKEVILLE      CLEAR     37  30  75 SW3       30.16S
EDEN PRAIRIE   CLEAR     45  30  55 SW7       30.15R
6HR MIN TEMP:  42; 6HR MAX TEMP:  53;

SOUTH ST PAUL  CLEAR     41  33  74 CALM      30.15S
LAKE ELMO      FAIR      37  34  87 CALM      30.16S
$$
MNZ001>005-007-008-013>017-022>024-027-028-281300-
   Northwest Minnesota

CITY           SKY/WX    TMP DP  RH WIND       PRES   REMARKS
BEMIDJI        CLOUDY    43  42  96 N6        30.23S
HALLOCK        FOG       37  36  93 CALM      30.29R VSB<1/4
ROSEAU         MOCLDY    37  34  87 N6        30.28R
WARROAD        CLOUDY    39  36  87 N5        30.28R
THIEF RVR FALL CLOUDY    41  37  87 N8        30.28R
CROOKSTON      SNOW      37  36  93 N5        30.30R VSB<1/4
FOSSTON        CLOUDY    43  41  93 N9        30.25R
DETROIT LAKES  CLOUDY    45  45 100 NW10      30.24R FOG
MOORHEAD       FOG       41  41 100 N12       30.27S VSB 3/4
PARK RAPIDS    LGT RAIN  48  44  86 N9        30.21S
MAHNOMEN       CLOUDY    44  43  96 N12       30.24S
$$
MNZ006-009>011-018-025>026-281300-
   North Central Minnesota

CITY           SKY/WX    TMP DP  RH WIND       PRES   REMARKS
BAUDETTE       CLOUDY    41  39  93 NW8       30.26R
FLAG ISLAND    CLOUDY    41  37  87 N9        30.26R
INTL FALLS     CLOUDY    44  42  93 NW7       30.21S
6HR MIN TEMP:  44; 6HR MAX TEMP:  50; 6HR PCP:  0.02;

WASKISH        DRIZZLE   43  43 100 CALM      30.24S
BIG FORK       LGT RAIN  46  43  87 CALM      30.22R
LONGVILLE      DRIZZLE   46  45  93 NW3       30.21S
GRAND RAPIDS   CLOUDY    48  39  71 NW12      30.20R
CRANE LAKE     LGT RAIN  46  45  93 N6        30.21S
ORR            CLOUDY    48  43  81 NW6       30.18R
COOK           CLOUDY    48  43  81 NW3       30.20R
WALKER         DRIZZLE   44  43  95 CALM      30.22S
$$
MNZ012-019>021-037-281300-
   Northeast Minnesota

CITY           SKY/WX    TMP DP  RH WIND       PRES   REMARKS
DULUTH         FAIR      42  31  64 N8        30.16R
6HR MIN TEMP:  36; 6HR MAX TEMP:  46;

ELY            MOCLDY    37  34  87 CALM      30.17S
HIBBING        LGT RAIN  49  41  74 N14       30.18R
EVELETH        MOCLDY    39  34  81 CALM      30.18S
DULUTH HARBOR  MOCLDY    37  34  87 CALM      30.18R
TWO HARBORS    CLOUDY    43  30  61 CALM      30.14S
SILVER BAY     MOCLDY    34  30  86 CALM      30.14S
GRAND MARAIS     N/A     37  30  75 CALM      30.15S
G MARAIS ARPRT MOSUNNY   37  27  65 NW5       30.14S
$$
MNZ029>031-032-039>041-046>048-054>057-064-281300-
   West Central Minnesota

CITY           SKY/WX    TMP DP  RH WIND       PRES   REMARKS
FERGUS FALLS   CLOUDY    45  45 100 N15       30.25S FOG
WHEATON        CLOUDY    45  43  93 NW9       30.27S
MORRIS         CLOUDY    46  45  93 NW17      30.21S FOG
ALEXANDRIA     CLOUDY    50  43  77 NE10      30.21R
ELBOW LAKE     LGT RAIN  45  45  99 NW16      30.24R
WADENA         CLOUDY    46  43  87 CALM      30.22R
GLENWOOD       CLOUDY    50  43  76 N9        30.20S
APPLETON       CLOUDY    50  43  76 N14       30.22R
BENSON         CLOUDY    48  41  76 NW8       30.21R
ORTONVILLE     CLOUDY    46  43  87 N16       30.23S
MADISON        CLOUDY    50  43  76 N15       30.22R
WILLMAR        FAIR      48  43  81 N7        30.20S
$$
MNZ033>034-036-042>043-049>051-058-059-281300-
   Central Minnesota

CITY           SKY/WX    TMP DP  RH WIND       PRES   REMARKS
ST CLOUD       PTCLDY    48  38  68 NW9       30.17R
6HR MIN TEMP:  37; 6HR MAX TEMP:  48;

SAUK CENTRE    PTSUNNY   50  43  76 N10       30.19R
PAYNESVILLE    CLOUDY    47  40  75 S5        30.20R
AITKIN         MIX PCPN  48  39  71 CALM      30.16R
PINE RIVER     DRIZZLE   48  45  87 N8        30.24R
BRAINERD       CLOUDY    51  43  74 NW13      30.20R
STAPLES        CLOUDY    48  45  87 N7        30.21S
LONG PRAIRIE   CLOUDY    48  43  81 NW8       30.21R
LITTLE FALLS   CLOUDY    52  41  66 NW9G16    30.18S
LITCHFIELD     MOCLDY    48  39  71 NW8       30.19R
BUFFALO        PTCLDY    47  33  59 NW9       30.17S
MAPLE LAKE     PTCLDY    48  37  65 NW8       30.18R
$$
MNZ037-044-045-052-053-281300-
   East Central Minnesota

CITY           SKY/WX    TMP DP  RH WIND       PRES   REMARKS
PRINCETON      FAIR      45  34  65 NW6       30.16R
MORA           PTCLDY    41  30  65 N3        30.17S
CAMBRIDGE      PTCLDY    41  30  65 CALM      30.14R
RUSH CITY      CLEAR     38  32  76 CALM      30.14S
MOOSE LAKE     PTCLDY    32  30  93 CALM      30.14F
HINCKLEY       FAIR      37  30  75 NE3       30.16R
CLOQUET        CLOUDY    37  30  75 N5        30.16S
MCGREGOR       CLOUDY    45  36  70 NW6       30.18R
$$
MNZ071>073-080-081-089-090-097-098-281300-
   Southwest Minnesota

CITY           SKY/WX    TMP DP  RH WIND       PRES   REMARKS
MONTEVIDEO     CLOUDY    50  43  76 N7        30.22S
GRANITE FALLS  CLOUDY    50  41  72 NW10      30.21S
CANBY          CLOUDY    48  42  80 NW9       30.24R
MARSHALL       MOCLDY    46  37  71 NW7       30.21R
REDWOOD FALLS  MOCLDY    43  38  82 NW8       30.19R
OLIVIA         MOCLDY    43  36  75 NW9       30.18R
PIPESTONE      MOCLDY    46  39  76 N6        30.20S
WINDOM         PTCLDY    43  37  81 CALM      30.20R
WORTHINGTON    PTCLDY    39  34  81 NW9       30.21S
JACKSON        CLEAR     41  34  75 NW6       30.20S
TRACY          MOCLDY    46  40  82 NW9       30.21S
SLAYTON        PTCLDY    41  39  93 CALM      30.22S
$$
MNZ065>067-074>077-082>085-091>093-281300-
   South Central Minnesota

CITY           SKY/WX    TMP DP  RH WIND       PRES   REMARKS
MANKATO        CLEAR     45  25  45 W7        30.18R
NEW ULM        CLEAR     37  30  75 W8        30.19R
ST JAMES       CLEAR     45  36  70 W9        30.20R
FAIRMONT       CLEAR     43  30  61 NW9       30.18S
GLENCOE        PTCLDY    43  30  59 CALM      30.17R
FARIBAULT      CLEAR     37  30  75 CALM      30.17S
OWATONNA       CLEAR     37  27  65 CALM      30.18R
WASECA         CLEAR     39  28  65 CALM      30.18S
ALBERT LEA     CLEAR     39  30  70 CALM      30.18R
$$
MNZ078>079-086>088-094>096-281300-
   Southeast Minnesota

CITY           SKY/WX    TMP DP  RH WIND       PRES   REMARKS
ROCHESTER      PTCLDY    50  26  39 NE3       30.18S
6HR MIN TEMP:  42; 6HR MAX TEMP:  51;

RED WING       CLEAR     39  32  75 E3        30.16S
STANTON        CLEAR     35  28  76 S5        30.15S WCI  31
DODGE CENTER   PTCLDY    39  30  70 SW3       30.17R
WINONA         CLEAR     37  34  87 CALM      30.18S
AUSTIN         CLEAR     39  32  75 CALM      30.17S
PRESTON        PTCLDY    45  29  55 NW3       30.17S
$$
ABBREVIATIONS USED IN REMARKS
   TC - TEMPERATURES IN CELSIUS
  WCI - WIND CHILL INDEX
   HX - HEAT INDEX
  VSB - VISIBILITY
$$


USA.gov is the U.S. government's official web portal to all federal, state and local government web resources and services.